This is the latest recevied weather packets stored in our database for station/object N3WMC. If no packets are shown the sender has not sent any weather packets the latest 10 day(s).
| Time | Temp. | Humidity | Pressure | Rain* | Wind** | Luminosity | Snow |
|---|---|---|---|---|---|---|---|
| 1787786326 | 26.11° C | 58% | 1015.6 hPa | 0 mm | - | 26 W/m² | - |
| 1787786023 | 26.11° C | 59% | 1015.6 hPa | 0 mm | - | 29 W/m² | - |
| 1787785723 | 26.67° C | 54% | 1015.8 hPa | 0 mm | - | 33 W/m² | - |
| 1787785418 | 26.67° C | 54% | 1015.9 hPa | 0 mm | - | 39 W/m² | - |
| 1787785116 | 26.67° C | 53% | 1015.8 hPa | 0 mm | - | 48 W/m² | - |
| 1787784812 | 26.67° C | 52% | 1015.9 hPa | 0 mm | - | 55 W/m² | - |
| 1787784511 | 26.67° C | 52% | 1015.9 hPa | 0 mm | - | 53 W/m² | - |
| 1787784206 | 26.11° C | 53% | 1016 hPa | 0 mm | - | 50 W/m² | - |
| 1787783901 | 26.11° C | 53% | 1015.8 hPa | 0 mm | - | 38 W/m² | - |
| 1787783597 | 26.11° C | 52% | 1015.8 hPa | 0 mm | - | 33 W/m² | - |
| 1787783296 | 26.67° C | 49% | 1015.9 hPa | 0 mm | - | 37 W/m² | - |
| 1787782993 | 27.22° C | 48% | 1016 hPa | 0 mm | - | 78 W/m² | - |
| 1787782691 | 27.22° C | 46% | 1016.1 hPa | 0 mm | - | 85 W/m² | - |
| 1787782387 | 27.22° C | 47% | 1016 hPa | 0 mm | - | 94 W/m² | - |
| 1787782088 | 27.22° C | 47% | 1016.1 hPa | 0 mm | - | 103 W/m² | - |
| 1787781784 | 27.22° C | 47% | 1016.3 hPa | 0 mm | - | 111 W/m² | - |
| 1787781481 | 27.22° C | 47% | 1016.3 hPa | 0 mm | - | 116 W/m² | - |
| 1787781181 | 27.22° C | 46% | 1016.5 hPa | 0 mm | - | 128 W/m² | - |
| 1787780879 | 27.22° C | 47% | 1016.3 hPa | 0 mm | - | 138 W/m² | - |
| 1787780574 | 27.22° C | 47% | 1016.4 hPa | 0 mm | - | 149 W/m² | - |
| 1787780269 | 27.78° C | 46% | 1016.4 hPa | 0 mm | - | 162 W/m² | - |
| 1787779965 | 27.78° C | 47% | 1016.5 hPa | 0 mm | - | 172 W/m² | - |
| 1787779660 | 27.22° C | 47% | 1016.4 hPa | 0 mm | - | 181 W/m² | - |
| 1787779358 | 27.78° C | 46% | 1016.3 hPa | 0 mm | - | 193 W/m² | - |
| 1787779054 | 27.22° C | 46% | 1016.4 hPa | 0 mm | - | 208 W/m² | - |
* Rain latest hour (hover to see other rain measurements)
** Current wind speed in m/s (hover to see current wind gust speed)